Location: Hickory_CSC
(35.7330°N, 81.3330°W)
Time: 08:06:04
(UTC-04:00)

ISS - All Passes

Search period start: 28 March 2017 00:00
Search period end: 07 April 2017 00:00
Orbit: 399 x 409 km, 51.6° (Epoch: 28 March)

Date Brightness Start Highest point End Pass type
(mag) Time Alt. Az. Time Alt. Az. Time Alt. Az.
28 Mar - 02:53:29 10° NNW 02:55:53 19° NNE 02:58:17 10° ENE night (unlit)
28 Mar - 04:29:20 10° WNW 04:32:31 46° SW 04:35:41 10° SSE night (unlit)
28 Mar - 19:31:24 10° S 19:33:52 20° SE 19:36:20 10° E daylight
28 Mar - 21:07:13 10° W 21:10:11 32° NW 21:13:09 10° NNE visible
29 Mar - 02:01:51 10° N 02:03:17 12° NNE 02:04:42 10° NE night (unlit)
29 Mar - 03:36:55 10° NW 03:40:12 79° NE 03:43:30 10° SE night (unlit)
29 Mar - 20:14:32 10° WSW 20:17:44 64° NW 20:20:59 10° NE visible
29 Mar - 21:53:51 10° NW 21:54:46 11° NNW 21:55:41 10° N visible
30 Mar - 02:44:42 10° NNW 02:47:49 38° NE 02:50:55 10° ESE night (unlit)
30 Mar - 04:21:49 10° W 04:24:04 17° SW 04:26:17 10° S night (unlit)
30 Mar - 19:22:14 10° SW 19:25:24 57° SE 19:28:36 10° NE daylight
30 Mar - 20:59:58 10° WNW 21:02:07 16° NNW 21:04:16 10° NNE visible
31 Mar - 01:52:40 10° NNW 01:55:18 22° NNE 01:57:56 10° E night (unlit)
31 Mar - 03:28:48 10° WNW 03:31:50 35° SW 03:34:52 10° SSE night (unlit)
31 Mar - 18:30:24 10° S 18:33:08 26° SE 18:35:54 10° ENE daylight
31 Mar - 20:06:45 10° W 20:09:33 26° NNW 20:12:22 10° NNE visible
01 Apr - 01:00:52 10° N 01:02:42 14° NNE 01:04:31 10° ENE night (unlit)
01 Apr - 02:36:15 10° NW 02:39:31 80° SW 02:42:48 10° SE night (unlit)
01 Apr - 17:39:29 10° SSE 17:40:57 12° SE 17:42:23 10° E daylight
01 Apr - 19:13:54 10° WSW 19:17:04 49° NW 19:20:14 10° NE daylight
02 Apr - 01:43:55 10° NW 01:47:07 47° NE 01:50:18 10° ESE night (unlit)
02 Apr - 03:21:35 10° W 03:23:16 13° SW 03:24:56 10° SSW night (unlit)
02 Apr - 18:21:25 10° SW 18:24:39 76° SE 18:27:54 10° NE daylight
02 Apr - 19:59:38 10° WNW 20:01:27 14° NNW 20:03:17 10° N daylight
03 Apr - 00:51:48 10° NNW 00:54:36 26° NNE 00:57:25 10° E night (unlit)
03 Apr - 02:28:11 10° WNW 02:31:02 27° SW 02:33:52 10° SSE night (unlit)
03 Apr - 17:29:22 10° SSW 17:32:18 33° SE 17:35:16 10° ENE daylight
03 Apr - 19:06:13 10° W 19:08:49 22° NNW 19:11:26 10° NNE daylight
03 Apr - 23:59:52 10° NNW 00:01:59 16° NNE 00:04:07 10° ENE night (unlit)
04 Apr - 01:35:28 10° NW 01:38:43 60° SW 01:41:57 10° SE night (unlit)
04 Apr - 16:37:59 10° SSE 16:40:03 16° SE 16:42:07 10° E daylight
04 Apr - 18:13:12 10° WSW 18:16:15 39° NW 18:19:21 10° NE daylight
04 Apr - 23:08:27 10° N 23:09:16 11° NNE 23:10:06 10° NE visible
05 Apr - 00:43:02 10° NW 00:46:17 61° NE 00:49:33 10° ESE night (unlit)
05 Apr - 02:21:51 10° WSW 02:22:21 10° SW 02:22:51 10° SW night (unlit)
05 Apr - 17:20:33 10° SW 17:23:47 83° NW 17:27:02 10° NE daylight
05 Apr - 18:59:16 10° NW 19:00:41 12° NNW 19:02:07 10° N daylight
05 Apr - 23:50:48 10° NNW 23:53:46 31° NE 23:56:44 10° E night (unlit)
06 Apr - 01:27:32 10° WNW 01:30:06 21° SW 01:32:41 10° S night (unlit)
06 Apr - 16:28:18 10° SSW 16:31:22 43° SE 16:34:29 10° ENE daylight
06 Apr - 18:05:35 10° WNW 18:07:59 19° NNW 18:10:23 10° NNE daylight
06 Apr - 22:58:46 10° NNW 23:01:09 18° NNE 23:03:33 10° ENE visible
